{"data":{"norad_id":63940,"intl_designator":"2025-098Q","name":"STARLINK-34021","alt_names":[],"object_type":"PAYLOAD","status":"ACTIVE","operator":null,"country":"US","launch_date":"2025-05-13","launch_site_code":"AFWTR","launch_vehicle":null,"mission":null,"orbit_class":"UNKNOWN","rcs_meters":null,"size_class":null,"mass_kg":null,"dimensions":null,"purposes":["comms"],"wikipedia_slug":null,"has_3d_model":false,"image_url":null,"decayed_at":null,"tle_current":{"epoch":"2026-05-25T02:29:44.590848Z","epoch_age_seconds":56289,"freshness":"FRESH","line1":"1 63940U 25098Q   26145.10398832 -.00001679  00000+0 -13292-3 0  9992","line2":"2 63940  70.0000  81.9810 0003502 255.8133 104.2637 14.98336107 57990","mean_motion":14.98336107,"eccentricity":0.0003502,"inclination_deg":70,"raan_deg":81.981,"arg_perigee_deg":255.8133,"mean_anomaly_deg":104.2637,"bstar":-0.00013292,"rev_number":5799,"period_min":96.106607407546,"perigee_km":569.60305467806,"apogee_km":574.4709565516,"semimajor_km":6950.1740056148,"source":"CELESTRAK","updated_at":"2026-05-25T13:38:20.185762Z"}}}